, AK

(GMT )
Northway

Weather History for PAOR - September, 2013

Change the Weather History Date:

Friday, September 6, 2013

  Actual Average Record
Temperature  
Mean Temperature 42 °F -  
Max Temperature 52 °F 56 °F 71 °F (1986)
Min Temperature 33 °F 34 °F 23 °F (1962)
Degree Days  
Heating Degree Days 22    
Moisture  
Dew Point 37 °F    
Average Humidity 84    
Maximum Humidity 96    
Minimum Humidity 63    
Precipitation  
Precipitation 0.00 in - - ()
Sea Level Pressure  
Sea Level Pressure 29.88 in    
Wind  
Wind Speed 1 mph (NW)    
Max Wind Speed 6 mph    
Max Gust Speed -    
Visibility 10 miles    
Events Fog , Snow    
Averages and records for this station are not official NWS values.
T = Trace of Precipitation, MM = Missing Value Source: NWS Daily Summary

Daily Weather History Graph

Daily Weather History Graph

Search for Another Location

Airport or City:

Trip Planner

Search our weather history database for the weather conditions in past years. The results will help you decide how hot, cold, wet, or windy it might be!

Date:

Astronomy

Sep. 06, 2013 Rise Set
Actual Time 6:29 AM AKDT 8:21 PM AKDT
Civil Twilight 5:40 AM AKDT 9:09 PM AKDT
Nautical Twilight 4:36 AM AKDT 10:12 PM AKDT
Astronomical Twilight 3:09 AM AKDT 11:36 PM AKDT
Moon 8:33 AM AKDT (9/6) 7:58 PM AKDT (9/6)
Length of Visible Light 15h 29m
Length of Day
13h 52m
New Moon, 2% of the Moon is Illuminated
Sep 6
New Moon
Sep 12
First Quarter
Sep 19
Full
Sep 26
Last Quarter
Oct 4
New

Hourly Weather History & Observations

Time (AKDT) Temp. Windchill Dew Point Humidity Pressure Visibility Wind Dir Wind Speed Gust Speed Precip Events Conditions
12:53 AM 37.9 °F - 36.0 °F 93% 30.04 in 10.0 mi Calm Calm - 0.00 in   Mostly Cloudy
1:53 AM 36.0 °F - 34.0 °F 93% 30.06 in 10.0 mi Calm Calm - N/A   Mostly Cloudy
2:53 AM 35.1 °F - 33.1 °F 92% 30.04 in 10.0 mi Calm Calm - N/A   Mostly Cloudy
3:53 AM 34.0 °F - 32.0 °F 92% 30.04 in 10.0 mi Calm Calm - N/A   Mostly Cloudy
4:53 AM 33.1 °F - 30.9 °F 92% 30.04 in 10.0 mi Calm Calm - N/A   Mostly Cloudy
5:07 AM 33.8 °F - 30.2 °F 87% 30.00 in 1.8 mi Calm Calm - N/A   Partly Cloudy
5:18 AM 33.8 °F - 30.2 °F 87% 30.00 in 8.0 mi Calm Calm - N/A Fog Mostly Cloudy
5:53 AM 33.1 °F - 32.0 °F 96% 30.02 in 10.0 mi Calm Calm - N/A Fog Patches of Fog
6:53 AM 34.0 °F - 33.1 °F 96% 30.01 in 10.0 mi Calm Calm - N/A   Clear
7:53 AM 37.0 °F - 35.1 °F 93% 30.01 in 10.0 mi Calm Calm - 0.00 in Snow Light Snow
8:53 AM 39.0 °F - 37.0 °F 93% 29.99 in 10.0 mi Calm Calm - 0.00 in   Partly Cloudy
9:53 AM 42.1 °F - 37.9 °F 85% 29.97 in 10.0 mi Calm Calm - N/A   Overcast
10:53 AM 48.0 °F - 39.0 °F 71% 29.93 in 10.0 mi ESE 4.6 mph - N/A   Overcast
11:53 AM 50.0 °F - 39.0 °F 66% 29.91 in 10.0 mi Calm Calm - N/A   Overcast
12:53 PM 51.1 °F - 39.0 °F 63% 29.88 in 10.0 mi Calm Calm - N/A   Overcast
1:53 PM 52.0 °F - 41.0 °F 66% 29.84 in 10.0 mi NW 4.6 mph - N/A   Overcast
2:53 PM 48.9 °F - 41.0 °F 74% 29.82 in 10.0 mi WNW 5.8 mph - N/A   Overcast
3:53 PM 48.9 °F - 41.0 °F 74% 29.78 in 10.0 mi NW 3.5 mph - N/A   Overcast
4:53 PM 48.9 °F - 41.0 °F 74% 29.74 in 10.0 mi WNW 3.5 mph - N/A   Overcast
5:53 PM 50.0 °F - 41.0 °F 71% 29.71 in 10.0 mi Calm Calm - N/A   Overcast
6:53 PM 48.9 °F - 42.1 °F 77% 29.70 in 10.0 mi Calm Calm - N/A   Overcast
7:53 PM 48.0 °F - 42.1 °F 80% 29.67 in 10.0 mi Calm Calm - N/A   Mostly Cloudy
8:53 PM 45.0 °F - 42.1 °F 90% 29.66 in 10.0 mi Calm Calm - N/A   Partly Cloudy
9:53 PM 42.1 °F - 39.9 °F 92% 29.65 in 10.0 mi Calm Calm - N/A   Mostly Cloudy
10:53 PM 42.1 °F - 39.9 °F 92% 29.63 in 10.0 mi Calm Calm - N/A   Mostly Cloudy
11:53 PM 39.9 °F 37.8 °F 37.9 °F 93% 29.61 in 10.0 mi East 3.5 mph - N/A   Mostly Cloudy